Data supplied by UK-AIR on 9/6/2008
All Data GMT hour ending 
Status: R =Ratified P=Provisional,P*=As supplied
,,Aston Hill,,,,,,,,,,,,,,,,,,,,,,,
Date,time,"Nitric oxide",status,unit,"Nitrogen dioxide",status,unit,"Nitrogen oxides as nitrogen dioxide",status,unit,"Ozone",status,unit
 
01-01-2006,01:00,,,,,,,,,,,,
01-01-2006,02:00,1.3,R,ugm-3,4.0,R,ugm-3,5.9,R,ugm-3,74,R,ugm-3
01-01-2006,03:00,2.3,R,ugm-3,1.7,R,ugm-3,5.2,R,ugm-3,72,R,ugm-3
01-01-2006,04:00,2.3,R,ugm-3,2.7,R,ugm-3,6.1,R,ugm-3,72,R,ugm-3
01-01-2006,05:00,2.3,R,ugm-3,1.7,R,ugm-3,5.2,R,ugm-3,70,R,ugm-3
01-01-2006,06:00,2.3,R,ugm-3,2.1,R,ugm-3,5.5,R,ugm-3,66,R,ugm-3
01-01-2006,07:00,1.3,R,ugm-3,2.7,R,ugm-3,4.6,R,ugm-3,70,R,ugm-3
01-01-2006,08:00,1.9,R,ugm-3,1.7,R,ugm-3,4.6,R,ugm-3,78,R,ugm-3
01-01-2006,09:00,1.6,R,ugm-3,1.7,R,ugm-3,4.2,R,ugm-3,76,R,ugm-3
01-01-2006,10:00,1.6,R,ugm-3,1.7,R,ugm-3,4.2,R,ugm-3,74,R,ugm-3
01-01-2006,11:00,2.3,R,ugm-3,1.7,R,ugm-3,5.2,R,ugm-3,72,R,ugm-3
01-01-2006,12:00,1.6,R,ugm-3,2.1,R,ugm-3,4.6,R,ugm-3,66,R,ugm-3
01-01-2006,13:00,2.5,R,ugm-3,2.1,R,ugm-3,5.9,R,ugm-3,60,R,ugm-3
01-01-2006,14:00,2.5,R,ugm-3,2.1,R,ugm-3,5.9,R,ugm-3,66,R,ugm-3
01-01-2006,15:00,1.9,R,ugm-3,2.1,R,ugm-3,5.0,R,ugm-3,70,R,ugm-3
01-01-2006,16:00,1.3,R,ugm-3,2.7,R,ugm-3,4.6,R,ugm-3,68,R,ugm-3
01-01-2006,17:00,1.3,R,ugm-3,2.1,R,ugm-3,4.0,R,ugm-3,70,R,ugm-3
01-01-2006,18:00,1.6,R,ugm-3,2.7,R,ugm-3,5.2,R,ugm-3,72,R,ugm-3
01-01-2006,19:00,1.9,R,ugm-3,5.0,R,ugm-3,7.8,R,ugm-3,68,R,ugm-3
01-01-2006,20:00,2.3,R,ugm-3,4.6,R,ugm-3,8.0,R,ugm-3,66,R,ugm-3
01-01-2006,21:00,1.9,R,ugm-3,5.0,R,ugm-3,7.8,R,ugm-3,66,R,ugm-3
01-01-2006,22:00,1.9,R,ugm-3,4.0,R,ugm-3,6.9,R,ugm-3,64,R,ugm-3
01-01-2006,23:00,1.6,R,ugm-3,3.6,R,ugm-3,6.1,R,ugm-3,64,R,ugm-3
01-01-2006,24:00,2.5,R,ugm-3,1.7,R,ugm-3,5.5,R,ugm-3,66,R,ugm-3
02-01-2006,01:00,1.6,R,ugm-3,1.5,R,ugm-3,4.0,R,ugm-3,66,R,ugm-3
02-01-2006,02:00,2.1,R,ugm-3,1.5,R,ugm-3,4.8,R,ugm-3,66,R,ugm-3
02-01-2006,03:00,1.9,R,ugm-3,2.7,R,ugm-3,5.5,R,ugm-3,62,R,ugm-3
02-01-2006,04:00,1.9,R,ugm-3,1.7,R,ugm-3,4.6,R,ugm-3,62,R,ugm-3
02-01-2006,05:00,2.3,R,ugm-3,1.7,R,ugm-3,5.2,R,ugm-3,64,R,ugm-3
02-01-2006,06:00,2.3,R,ugm-3,0.8,R,ugm-3,4.2,R,ugm-3,66,R,ugm-3
02-01-2006,07:00,2.3,R,ugm-3,0.8,R,ugm-3,4.2,R,ugm-3,68,R,ugm-3
02-01-2006,08:00,1.9,R,ugm-3,2.1,R,ugm-3,5.0,R,ugm-3,66,R,ugm-3
02-01-2006,09:00,2.5,R,ugm-3,2.1,R,ugm-3,5.9,R,ugm-3,66,R,ugm-3
02-01-2006,10:00,1.9,R,ugm-3,1.7,R,ugm-3,4.6,R,ugm-3,68,R,ugm-3
02-01-2006,11:00,2.5,R,ugm-3,1.7,R,ugm-3,5.5,R,ugm-3,62,R,ugm-3
02-01-2006,12:00,1.9,R,ugm-3,3.1,R,ugm-3,5.9,R,ugm-3,54,R,ugm-3
02-01-2006,13:00,2.5,R,ugm-3,3.6,R,ugm-3,7.4,R,ugm-3,48,R,ugm-3
02-01-2006,14:00,1.9,R,ugm-3,1.7,R,ugm-3,4.6,R,ugm-3,60,R,ugm-3
02-01-2006,15:00,1.9,R,ugm-3,2.7,R,ugm-3,5.5,R,ugm-3,58,R,ugm-3
02-01-2006,16:00,1.6,R,ugm-3,4.6,R,ugm-3,7.1,R,ugm-3,56,R,ugm-3
02-01-2006,17:00,1.6,R,ugm-3,4.6,R,ugm-3,7.1,R,ugm-3,56,R,ugm-3
02-01-2006,18:00,1.9,R,ugm-3,1.7,R,ugm-3,4.6,R,ugm-3,64,R,ugm-3
02-01-2006,19:00,1.6,R,ugm-3,2.1,R,ugm-3,4.6,R,ugm-3,64,R,ugm-3
02-01-2006,20:00,1.6,R,ugm-3,2.7,R,ugm-3,5.2,R,ugm-3,66,R,ugm-3
02-01-2006,21:00,2.5,R,ugm-3,2.1,R,ugm-3,5.9,R,ugm-3,60,R,ugm-3
02-01-2006,22:00,2.5,R,ugm-3,3.6,R,ugm-3,7.4,R,ugm-3,52,R,ugm-3
02-01-2006,23:00,2.3,R,ugm-3,4.0,R,ugm-3,7.4,R,ugm-3,56,R,ugm-3
02-01-2006,24:00,1.6,R,ugm-3,4.0,R,ugm-3,6.5,R,ugm-3,64,R,ugm-3
03-01-2006,01:00,2.1,R,ugm-3,2.7,R,ugm-3,5.9,R,ugm-3,64,R,ugm-3
03-01-2006,02:00,1.3,R,ugm-3,4.0,R,ugm-3,5.9,R,ugm-3,68,R,ugm-3
03-01-2006,03:00,2.5,R,ugm-3,2.1,R,ugm-3,5.9,R,ugm-3,70,R,ugm-3
03-01-2006,04:00,2.3,R,ugm-3,2.1,R,ugm-3,5.5,R,ugm-3,74,R,ugm-3
03-01-2006,05:00,1.9,R,ugm-3,1.7,R,ugm-3,4.6,R,ugm-3,76,R,ugm-3
03-01-2006,06:00,1.9,R,ugm-3,1.1,R,ugm-3,4.0,R,ugm-3,74,R,ugm-3
03-01-2006,07:00,1.9,R,ugm-3,1.1,R,ugm-3,4.0,R,ugm-3,76,R,ugm-3
03-01-2006,08:00,1.9,R,ugm-3,1.1,R,ugm-3,4.0,R,ugm-3,78,R,ugm-3
03-01-2006,09:00,1.9,R,ugm-3,1.1,R,ugm-3,4.0,R,ugm-3,78,R,ugm-3
03-01-2006,10:00,1.9,R,ugm-3,1.1,R,ugm-3,4.0,R,ugm-3,76,R,ugm-3
03-01-2006,11:00,1.6,R,ugm-3,3.1,R,ugm-3,5.5,R,ugm-3,74,R,ugm-3
03-01-2006,12:00,2.3,R,ugm-3,4.0,R,ugm-3,7.4,R,ugm-3,66,R,ugm-3
03-01-2006,13:00,2.5,R,ugm-3,4.0,R,ugm-3,7.8,R,ugm-3,64,R,ugm-3
03-01-2006,14:00,1.9,R,ugm-3,4.6,R,ugm-3,7.4,R,ugm-3,70,R,ugm-3
03-01-2006,15:00,1.6,R,ugm-3,5.5,R,ugm-3,8.0,R,ugm-3,72,R,ugm-3
03-01-2006,16:00,2.5,R,ugm-3,4.0,R,ugm-3,7.8,R,ugm-3,76,R,ugm-3
03-01-2006,17:00,2.3,R,ugm-3,4.6,R,ugm-3,8.0,R,ugm-3,74,R,ugm-3
03-01-2006,18:00,1.3,R,ugm-3,5.9,R,ugm-3,7.8,R,ugm-3,76,R,ugm-3
03-01-2006,19:00,2.3,R,ugm-3,4.6,R,ugm-3,8.0,R,ugm-3,76,R,ugm-3
03-01-2006,20:00,1.3,R,ugm-3,6.5,R,ugm-3,8.4,R,ugm-3,74,R,ugm-3
03-01-2006,21:00,2.3,R,ugm-3,11.1,R,ugm-3,14.5,R,ugm-3,62,R,ugm-3
03-01-2006,22:00,1.0,R,ugm-3,12.8,R,ugm-3,14.3,R,ugm-3,58,R,ugm-3
03-01-2006,23:00,2.3,R,ugm-3,13.6,R,ugm-3,17.0,R,ugm-3,50,R,ugm-3
03-01-2006,24:00,0.6,R,ugm-3,21.8,R,ugm-3,22.7,R,ugm-3,38,R,ugm-3
04-01-2006,01:00,2.5,R,ugm-3,12.6,R,ugm-3,16.4,R,ugm-3,32,R,ugm-3
04-01-2006,02:00,2.1,R,ugm-3,15.3,R,ugm-3,18.5,R,ugm-3,40,R,ugm-3
04-01-2006,03:00,1.9,R,ugm-3,16.4,R,ugm-3,19.3,R,ugm-3,38,R,ugm-3
04-01-2006,04:00,2.5,R,ugm-3,14.9,R,ugm-3,18.7,R,ugm-3,38,R,ugm-3
04-01-2006,05:00,2.3,R,ugm-3,6.7,R,ugm-3,10.1,R,ugm-3,42,R,ugm-3
04-01-2006,06:00,1.6,R,ugm-3,7.1,R,ugm-3,9.6,R,ugm-3,50,R,ugm-3
04-01-2006,07:00,2.5,R,ugm-3,4.6,R,ugm-3,8.4,R,ugm-3,54,R,ugm-3
04-01-2006,08:00,1.6,R,ugm-3,6.1,R,ugm-3,8.6,R,ugm-3,54,R,ugm-3
04-01-2006,09:00,1.9,R,ugm-3,8.0,R,ugm-3,10.9,R,ugm-3,54,R,ugm-3
04-01-2006,10:00,2.3,R,ugm-3,5.5,R,ugm-3,9.0,R,ugm-3,54,R,ugm-3
04-01-2006,11:00,2.5,R,ugm-3,7.1,R,ugm-3,10.9,R,ugm-3,56,R,ugm-3
04-01-2006,12:00,2.5,R,ugm-3,7.1,R,ugm-3,10.9,R,ugm-3,56,R,ugm-3
04-01-2006,13:00,2.5,R,ugm-3,11.1,R,ugm-3,14.9,R,ugm-3,54,R,ugm-3
04-01-2006,14:00,2.5,R,ugm-3,9.6,R,ugm-3,13.4,R,ugm-3,56,R,ugm-3
04-01-2006,15:00,1.6,R,ugm-3,8.6,R,ugm-3,11.1,R,ugm-3,58,R,ugm-3
04-01-2006,16:00,2.5,R,ugm-3,9.6,R,ugm-3,13.4,R,ugm-3,54,R,ugm-3
04-01-2006,17:00,2.5,R,ugm-3,8.0,R,ugm-3,11.8,R,ugm-3,54,R,ugm-3
04-01-2006,18:00,1.3,R,ugm-3,13.9,R,ugm-3,15.9,R,ugm-3,46,R,ugm-3
04-01-2006,19:00,2.3,R,ugm-3,18.9,R,ugm-3,22.3,R,ugm-3,38,R,ugm-3
04-01-2006,20:00,1.9,R,ugm-3,29.2,R,ugm-3,32.1,R,ugm-3,26,R,ugm-3
04-01-2006,21:00,2.3,R,ugm-3,26.0,R,ugm-3,29.4,R,ugm-3,24,R,ugm-3
04-01-2006,22:00,1.9,R,ugm-3,12.4,R,ugm-3,15.3,R,ugm-3,36,R,ugm-3
04-01-2006,23:00,1.6,R,ugm-3,5.5,R,ugm-3,8.0,R,ugm-3,42,R,ugm-3
04-01-2006,24:00,2.5,R,ugm-3,16.4,R,ugm-3,20.2,R,ugm-3,24,R,ugm-3
05-01-2006,01:00,2.1,R,ugm-3,26.0,R,ugm-3,29.2,R,ugm-3,14,R,ugm-3
05-01-2006,02:00,1.6,R,ugm-3,32.5,R,ugm-3,35.0,R,ugm-3,10,R,ugm-3
05-01-2006,03:00,1.9,R,ugm-3,25.0,R,ugm-3,27.9,R,ugm-3,16,R,ugm-3
05-01-2006,04:00,1.6,R,ugm-3,19.9,R,ugm-3,22.3,R,ugm-3,22,R,ugm-3
05-01-2006,05:00,0.6,R,ugm-3,22.3,R,ugm-3,23.3,R,ugm-3,24,R,ugm-3
05-01-2006,06:00,1.3,R,ugm-3,19.5,R,ugm-3,21.4,R,ugm-3,32,R,ugm-3
05-01-2006,07:00,1.3,R,ugm-3,9.6,R,ugm-3,11.5,R,ugm-3,46,R,ugm-3
05-01-2006,08:00,1.9,R,ugm-3,12.0,R,ugm-3,14.9,R,ugm-3,34,R,ugm-3
05-01-2006,09:00,2.5,R,ugm-3,21.4,R,ugm-3,25.2,R,ugm-3,18,R,ugm-3
05-01-2006,10:00,2.5,R,ugm-3,14.5,R,ugm-3,18.3,R,ugm-3,26,R,ugm-3
05-01-2006,11:00,1.9,R,ugm-3,8.6,R,ugm-3,11.5,R,ugm-3,36,R,ugm-3
05-01-2006,12:00,2.5,R,ugm-3,10.1,R,ugm-3,13.9,R,ugm-3,36,R,ugm-3
05-01-2006,13:00,2.5,R,ugm-3,11.1,R,ugm-3,14.9,R,ugm-3,40,R,ugm-3
05-01-2006,14:00,2.9,R,ugm-3,12.4,R,ugm-3,16.8,R,ugm-3,36,R,ugm-3
05-01-2006,15:00,2.3,R,ugm-3,13.6,R,ugm-3,17.0,R,ugm-3,30,R,ugm-3
05-01-2006,16:00,1.9,R,ugm-3,18.5,R,ugm-3,21.4,R,ugm-3,26,R,ugm-3
05-01-2006,17:00,1.9,R,ugm-3,19.5,R,ugm-3,22.3,R,ugm-3,26,R,ugm-3
05-01-2006,18:00,1.6,R,ugm-3,19.5,R,ugm-3,22.0,R,ugm-3,28,R,ugm-3
05-01-2006,19:00,1.9,R,ugm-3,18.9,R,ugm-3,21.8,R,ugm-3,30,R,ugm-3
05-01-2006,20:00,1.0,R,ugm-3,18.9,R,ugm-3,20.4,R,ugm-3,30,R,ugm-3
05-01-2006,21:00,0.6,R,ugm-3,18.9,R,ugm-3,19.9,R,ugm-3,30,R,ugm-3
05-01-2006,22:00,1.3,R,ugm-3,17.4,R,ugm-3,19.3,R,ugm-3,30,R,ugm-3
05-01-2006,23:00,1.6,R,ugm-3,15.5,R,ugm-3,18.0,R,ugm-3,28,R,ugm-3
05-01-2006,24:00,1.6,R,ugm-3,9.6,R,ugm-3,12.0,R,ugm-3,34,R,ugm-3
06-01-2006,01:00,1.3,R,ugm-3,9.9,R,ugm-3,11.8,R,ugm-3,34,R,ugm-3
06-01-2006,02:00,2.1,R,ugm-3,5.9,R,ugm-3,9.2,R,ugm-3,44,R,ugm-3
06-01-2006,03:00,2.0,R,ugm-3,1.5,R,ugm-3,4.6,R,ugm-3,50,R,ugm-3
06-01-2006,04:00,2.6,R,ugm-3,6.5,R,ugm-3,10.5,R,ugm-3,34,R,ugm-3
06-01-2006,05:00,1.6,R,ugm-3,7.1,R,ugm-3,9.6,R,ugm-3,32,R,ugm-3
06-01-2006,06:00,2.0,R,ugm-3,7.1,R,ugm-3,10.1,R,ugm-3,30,R,ugm-3
06-01-2006,07:00,1.3,R,ugm-3,10.5,R,ugm-3,12.4,R,ugm-3,24,R,ugm-3
06-01-2006,08:00,1.3,R,ugm-3,12.0,R,ugm-3,13.9,R,ugm-3,20,R,ugm-3
06-01-2006,09:00,2.3,R,ugm-3,10.5,R,ugm-3,13.9,R,ugm-3,18,R,ugm-3
06-01-2006,10:00,2.0,R,ugm-3,11.5,R,ugm-3,14.5,R,ugm-3,18,R,ugm-3
06-01-2006,11:00,2.6,R,ugm-3,12.8,R,ugm-3,16.8,R,ugm-3,14,R,ugm-3
06-01-2006,12:00,3.3,R,ugm-3,14.9,R,ugm-3,19.9,R,ugm-3,12,R,ugm-3
06-01-2006,13:00,6.1,R,ugm-3,14.5,R,ugm-3,23.9,R,ugm-3,12,R,ugm-3
06-01-2006,14:00,6.4,R,ugm-3,16.0,R,ugm-3,25.8,R,ugm-3,14,R,ugm-3
06-01-2006,15:00,5.8,R,ugm-3,17.0,R,ugm-3,25.8,R,ugm-3,12,R,ugm-3
06-01-2006,16:00,4.5,R,ugm-3,20.4,R,ugm-3,27.3,R,ugm-3,10,R,ugm-3
06-01-2006,17:00,7.1,R,ugm-3,26.4,R,ugm-3,37.2,R,ugm-3,4,R,ugm-3
06-01-2006,18:00,3.3,R,ugm-3,24.8,R,ugm-3,29.8,R,ugm-3,6,R,ugm-3
06-01-2006,19:00,4.5,R,ugm-3,27.3,R,ugm-3,34.2,R,ugm-3,4,R,ugm-3
06-01-2006,20:00,8.8,R,ugm-3,29.8,R,ugm-3,43.2,R,ugm-3,4,R,ugm-3
06-01-2006,21:00,12.3,R,ugm-3,30.6,R,ugm-3,49.3,R,ugm-3,4,R,ugm-3
06-01-2006,22:00,12.9,R,ugm-3,28.5,R,ugm-3,48.1,R,ugm-3,4,R,ugm-3
06-01-2006,23:00,8.6,R,ugm-3,28.5,R,ugm-3,41.6,R,ugm-3,4,R,ugm-3
06-01-2006,24:00,6.8,R,ugm-3,27.9,R,ugm-3,38.2,R,ugm-3,4,R,ugm-3
07-01-2006,01:00,8.1,R,ugm-3,29.2,R,ugm-3,41.6,R,ugm-3,4,R,ugm-3
07-01-2006,02:00,20.5,R,ugm-3,29.6,R,ugm-3,60.9,R,ugm-3,4,R,ugm-3
07-01-2006,03:00,19.6,R,ugm-3,29.8,R,ugm-3,59.8,R,ugm-3,4,R,ugm-3
07-01-2006,04:00,20.3,R,ugm-3,28.3,R,ugm-3,59.2,R,ugm-3,4,R,ugm-3
07-01-2006,05:00,17.0,R,ugm-3,30.2,R,ugm-3,56.2,R,ugm-3,4,R,ugm-3
07-01-2006,06:00,20.9,R,ugm-3,29.8,R,ugm-3,61.7,R,ugm-3,4,R,ugm-3
07-01-2006,07:00,13.8,R,ugm-3,29.6,R,ugm-3,50.6,R,ugm-3,4,R,ugm-3
07-01-2006,08:00,7.4,R,ugm-3,27.9,R,ugm-3,39.2,R,ugm-3,4,R,ugm-3
07-01-2006,09:00,8.4,R,ugm-3,28.1,R,ugm-3,40.9,R,ugm-3,6,R,ugm-3
07-01-2006,10:00,10.9,R,ugm-3,25.6,R,ugm-3,42.2,R,ugm-3,8,R,ugm-3
07-01-2006,11:00,17.4,R,ugm-3,24.3,R,ugm-3,50.8,R,ugm-3,10,R,ugm-3
07-01-2006,12:00,22.5,R,ugm-3,24.4,R,ugm-3,58.8,R,ugm-3,8,R,ugm-3
07-01-2006,13:00,19.3,R,ugm-3,24.8,R,ugm-3,54.2,R,ugm-3,8,R,ugm-3
07-01-2006,14:00,15.1,R,ugm-3,23.7,R,ugm-3,46.8,R,ugm-3,10,R,ugm-3
07-01-2006,15:00,10.9,R,ugm-3,24.6,R,ugm-3,41.3,R,ugm-3,10,R,ugm-3
07-01-2006,16:00,6.1,R,ugm-3,18.5,R,ugm-3,27.9,R,ugm-3,24,R,ugm-3
07-01-2006,17:00,2.0,R,ugm-3,17.4,R,ugm-3,20.4,R,ugm-3,26,R,ugm-3
07-01-2006,18:00,2.6,R,ugm-3,16.4,R,ugm-3,20.4,R,ugm-3,22,R,ugm-3
07-01-2006,19:00,4.5,R,ugm-3,21.4,R,ugm-3,28.3,R,ugm-3,12,R,ugm-3
07-01-2006,20:00,4.3,R,ugm-3,25.0,R,ugm-3,31.5,R,ugm-3,6,R,ugm-3
07-01-2006,21:00,4.3,R,ugm-3,18.9,R,ugm-3,25.4,R,ugm-3,8,R,ugm-3
07-01-2006,22:00,1.0,R,ugm-3,6.5,R,ugm-3,8.0,R,ugm-3,28,R,ugm-3
07-01-2006,23:00,0.6,R,ugm-3,15.5,R,ugm-3,16.4,R,ugm-3,18,R,ugm-3
07-01-2006,24:00,2.0,R,ugm-3,25.4,R,ugm-3,28.5,R,ugm-3,6,R,ugm-3
08-01-2006,01:00,2.6,R,ugm-3,25.2,R,ugm-3,29.2,R,ugm-3,6,R,ugm-3
08-01-2006,02:00,2.1,R,ugm-3,14.7,R,ugm-3,18.0,R,ugm-3,18,R,ugm-3
08-01-2006,03:00,1.6,R,ugm-3,19.5,R,ugm-3,22.0,R,ugm-3,10,R,ugm-3
08-01-2006,04:00,1.6,R,ugm-3,23.3,R,ugm-3,25.8,R,ugm-3,6,R,ugm-3
08-01-2006,05:00,2.6,R,ugm-3,25.8,R,ugm-3,29.8,R,ugm-3,4,R,ugm-3
08-01-2006,06:00,3.0,R,ugm-3,27.3,R,ugm-3,31.9,R,ugm-3,4,R,ugm-3
08-01-2006,07:00,2.6,R,ugm-3,24.8,R,ugm-3,28.8,R,ugm-3,4,R,ugm-3
08-01-2006,08:00,2.3,R,ugm-3,25.4,R,ugm-3,28.8,R,ugm-3,4,R,ugm-3
08-01-2006,09:00,2.3,R,ugm-3,22.9,R,ugm-3,26.4,R,ugm-3,6,R,ugm-3
08-01-2006,10:00,7.8,R,ugm-3,20.6,R,ugm-3,32.5,R,ugm-3,8,R,ugm-3
08-01-2006,11:00,12.9,R,ugm-3,19.3,R,ugm-3,39.0,R,ugm-3,10,R,ugm-3
08-01-2006,12:00,14.1,R,ugm-3,18.1,R,ugm-3,39.7,R,ugm-3,10,R,ugm-3
08-01-2006,13:00,9.0,R,ugm-3,13.6,R,ugm-3,27.3,R,ugm-3,18,R,ugm-3
08-01-2006,14:00,4.9,R,ugm-3,13.6,R,ugm-3,21.0,R,ugm-3,20,R,ugm-3
08-01-2006,15:00,3.3,R,ugm-3,16.4,R,ugm-3,21.4,R,ugm-3,16,R,ugm-3
08-01-2006,16:00,6.5,R,ugm-3,19.5,R,ugm-3,29.4,R,ugm-3,6,R,ugm-3
08-01-2006,17:00,6.1,R,ugm-3,21.6,R,ugm-3,30.9,R,ugm-3,4,R,ugm-3
08-01-2006,18:00,4.5,R,ugm-3,24.4,R,ugm-3,31.3,R,ugm-3,6,R,ugm-3
08-01-2006,19:00,3.6,R,ugm-3,22.9,R,ugm-3,28.5,R,ugm-3,6,R,ugm-3
08-01-2006,20:00,1.6,R,ugm-3,15.9,R,ugm-3,18.3,R,ugm-3,18,R,ugm-3
08-01-2006,21:00,2.0,R,ugm-3,13.4,R,ugm-3,16.4,R,ugm-3,22,R,ugm-3
08-01-2006,22:00,1.3,R,ugm-3,14.5,R,ugm-3,16.4,R,ugm-3,20,R,ugm-3
08-01-2006,23:00,1.6,R,ugm-3,17.4,R,ugm-3,19.9,R,ugm-3,20,R,ugm-3
08-01-2006,24:00,1.6,R,ugm-3,13.6,R,ugm-3,16.0,R,ugm-3,22,R,ugm-3
09-01-2006,01:00,0.0,R,ugm-3,13.4,R,ugm-3,13.4,R,ugm-3,24,R,ugm-3
09-01-2006,02:00,2.6,R,ugm-3,6.7,R,ugm-3,10.7,R,ugm-3,26,R,ugm-3
09-01-2006,03:00,2.3,R,ugm-3,5.5,R,ugm-3,9.0,R,ugm-3,28,R,ugm-3
09-01-2006,04:00,2.3,R,ugm-3,5.9,R,ugm-3,9.4,R,ugm-3,26,R,ugm-3
09-01-2006,05:00,2.0,R,ugm-3,4.0,R,ugm-3,7.1,R,ugm-3,26,R,ugm-3
09-01-2006,06:00,2.0,R,ugm-3,4.6,R,ugm-3,7.6,R,ugm-3,24,R,ugm-3
09-01-2006,07:00,2.3,R,ugm-3,6.5,R,ugm-3,9.9,R,ugm-3,18,R,ugm-3
09-01-2006,08:00,1.3,R,ugm-3,7.1,R,ugm-3,9.0,R,ugm-3,18,R,ugm-3
09-01-2006,09:00,2.6,R,ugm-3,8.4,R,ugm-3,12.4,R,ugm-3,16,R,ugm-3
09-01-2006,10:00,2.6,R,ugm-3,8.0,R,ugm-3,12.0,R,ugm-3,16,R,ugm-3
09-01-2006,11:00,4.5,R,ugm-3,7.1,R,ugm-3,13.9,R,ugm-3,16,R,ugm-3
09-01-2006,12:00,4.9,R,ugm-3,6.7,R,ugm-3,14.1,R,ugm-3,16,R,ugm-3
09-01-2006,13:00,4.5,R,ugm-3,7.1,R,ugm-3,13.9,R,ugm-3,20,R,ugm-3
09-01-2006,14:00,3.9,R,ugm-3,6.1,R,ugm-3,12.0,R,ugm-3,24,R,ugm-3
09-01-2006,15:00,2.6,R,ugm-3,5.9,R,ugm-3,9.9,R,ugm-3,26,R,ugm-3
09-01-2006,16:00,2.3,R,ugm-3,6.5,R,ugm-3,9.9,R,ugm-3,30,R,ugm-3
09-01-2006,17:00,2.0,R,ugm-3,8.6,R,ugm-3,11.7,R,ugm-3,28,R,ugm-3
09-01-2006,18:00,2.0,R,ugm-3,18.9,R,ugm-3,22.0,R,ugm-3,16,R,ugm-3
09-01-2006,19:00,1.6,R,ugm-3,16.4,R,ugm-3,18.9,R,ugm-3,24,R,ugm-3
09-01-2006,20:00,2.3,R,ugm-3,10.9,R,ugm-3,14.3,R,ugm-3,28,R,ugm-3
09-01-2006,21:00,2.0,R,ugm-3,8.0,R,ugm-3,11.1,R,ugm-3,32,R,ugm-3
09-01-2006,22:00,2.0,R,ugm-3,3.1,R,ugm-3,6.1,R,ugm-3,36,R,ugm-3
09-01-2006,23:00,1.3,R,ugm-3,3.6,R,ugm-3,5.5,R,ugm-3,40,R,ugm-3
09-01-2006,24:00,0.6,R,ugm-3,2.5,R,ugm-3,3.4,R,ugm-3,44,R,ugm-3
10-01-2006,01:00,0.4,R,ugm-3,12.6,R,ugm-3,13.2,R,ugm-3,48,R,ugm-3
10-01-2006,02:00,1.3,R,ugm-3,14.1,R,ugm-3,16.0,R,ugm-3,48,R,ugm-3
10-01-2006,03:00,0.0,R,ugm-3,15.5,R,ugm-3,15.5,R,ugm-3,46,R,ugm-3
10-01-2006,04:00,1.6,R,ugm-3,11.1,R,ugm-3,13.6,R,ugm-3,46,R,ugm-3
10-01-2006,05:00,1.6,R,ugm-3,9.0,R,ugm-3,11.5,R,ugm-3,50,R,ugm-3
10-01-2006,06:00,1.3,R,ugm-3,7.1,R,ugm-3,9.0,R,ugm-3,58,R,ugm-3
10-01-2006,07:00,1.6,R,ugm-3,6.5,R,ugm-3,9.0,R,ugm-3,62,R,ugm-3
10-01-2006,08:00,0.4,R,ugm-3,8.0,R,ugm-3,8.6,R,ugm-3,66,R,ugm-3
10-01-2006,09:00,1.3,R,ugm-3,7.1,R,ugm-3,9.0,R,ugm-3,66,R,ugm-3
10-01-2006,10:00,2.3,R,ugm-3,5.5,R,ugm-3,9.0,R,ugm-3,66,R,ugm-3
10-01-2006,11:00,1.6,R,ugm-3,5.5,R,ugm-3,8.0,R,ugm-3,68,R,ugm-3
10-01-2006,12:00,1.0,R,ugm-3,7.6,R,ugm-3,9.2,R,ugm-3,66,R,ugm-3
10-01-2006,13:00,0.4,R,ugm-3,8.0,R,ugm-3,8.6,R,ugm-3,66,R,ugm-3
10-01-2006,14:00,,,,,,,,,,,,
10-01-2006,15:00,,,,,,,,,,,,
10-01-2006,16:00,1.0,R,ugm-3,6.7,R,ugm-3,8.2,R,ugm-3,72,R,ugm-3
10-01-2006,17:00,2.0,R,ugm-3,5.2,R,ugm-3,8.2,R,ugm-3,72,R,ugm-3
10-01-2006,18:00,1.0,R,ugm-3,6.7,R,ugm-3,8.2,R,ugm-3,72,R,ugm-3
10-01-2006,19:00,1.3,R,ugm-3,6.1,R,ugm-3,8.0,R,ugm-3,72,R,ugm-3
10-01-2006,20:00,1.0,R,ugm-3,5.5,R,ugm-3,7.1,R,ugm-3,76,R,ugm-3
10-01-2006,21:00,2.0,R,ugm-3,2.5,R,ugm-3,5.5,R,ugm-3,80,R,ugm-3
10-01-2006,22:00,1.0,R,ugm-3,2.7,R,ugm-3,4.2,R,ugm-3,80,R,ugm-3
10-01-2006,23:00,2.0,R,ugm-3,2.1,R,ugm-3,5.2,R,ugm-3,80,R,ugm-3
10-01-2006,24:00,2.3,R,ugm-3,1.0,R,ugm-3,4.4,R,ugm-3,82,R,ugm-3
11-01-2006,01:00,1.3,R,ugm-3,2.1,R,ugm-3,4.0,R,ugm-3,84,R,ugm-3
11-01-2006,02:00,2.1,R,ugm-3,1.3,R,ugm-3,4.6,R,ugm-3,82,R,ugm-3
11-01-2006,03:00,2.3,R,ugm-3,1.0,R,ugm-3,4.4,R,ugm-3,84,R,ugm-3
11-01-2006,04:00,1.6,R,ugm-3,1.5,R,ugm-3,4.0,R,ugm-3,82,R,ugm-3
11-01-2006,05:00,1.0,R,ugm-3,2.7,R,ugm-3,4.2,R,ugm-3,90,R,ugm-3
11-01-2006,06:00,2.3,R,ugm-3,0.6,R,ugm-3,4.0,R,ugm-3,88,R,ugm-3
11-01-2006,07:00,1.0,R,ugm-3,2.7,R,ugm-3,4.2,R,ugm-3,88,R,ugm-3
11-01-2006,08:00,1.3,R,ugm-3,2.1,R,ugm-3,4.0,R,ugm-3,84,R,ugm-3
11-01-2006,09:00,2.6,R,ugm-3,1.0,R,ugm-3,5.0,R,ugm-3,82,R,ugm-3
11-01-2006,10:00,2.3,R,ugm-3,2.5,R,ugm-3,5.9,R,ugm-3,82,R,ugm-3
11-01-2006,11:00,1.3,R,ugm-3,2.7,R,ugm-3,4.6,R,ugm-3,82,R,ugm-3
11-01-2006,12:00,2.3,R,ugm-3,1.0,R,ugm-3,4.4,R,ugm-3,84,R,ugm-3
11-01-2006,13:00,2.3,R,ugm-3,1.0,R,ugm-3,4.4,R,ugm-3,84,R,ugm-3
11-01-2006,14:00,2.3,R,ugm-3,1.5,R,ugm-3,5.0,R,ugm-3,84,R,ugm-3
11-01-2006,15:00,1.3,R,ugm-3,3.6,R,ugm-3,5.5,R,ugm-3,82,R,ugm-3
11-01-2006,16:00,1.3,R,ugm-3,3.1,R,ugm-3,5.0,R,ugm-3,82,R,ugm-3
11-01-2006,17:00,1.3,R,ugm-3,3.6,R,ugm-3,5.5,R,ugm-3,78,R,ugm-3
11-01-2006,18:00,2.0,R,ugm-3,4.0,R,ugm-3,7.1,R,ugm-3,78,R,ugm-3
11-01-2006,19:00,2.0,R,ugm-3,4.0,R,ugm-3,7.1,R,ugm-3,74,R,ugm-3
11-01-2006,20:00,2.0,R,ugm-3,3.4,R,ugm-3,6.5,R,ugm-3,74,R,ugm-3
11-01-2006,21:00,2.0,R,ugm-3,4.0,R,ugm-3,7.1,R,ugm-3,74,R,ugm-3
11-01-2006,22:00,1.6,R,ugm-3,4.0,R,ugm-3,6.5,R,ugm-3,72,R,ugm-3
11-01-2006,23:00,2.3,R,ugm-3,4.0,R,ugm-3,7.4,R,ugm-3,72,R,ugm-3
11-01-2006,24:00,2.0,R,ugm-3,3.4,R,ugm-3,6.5,R,ugm-3,72,R,ugm-3
12-01-2006,01:00,1.3,R,ugm-3,2.1,R,ugm-3,4.0,R,ugm-3,70,R,ugm-3
12-01-2006,02:00,1.3,R,ugm-3,2.7,R,ugm-3,4.6,R,ugm-3,68,R,ugm-3
12-01-2006,03:00,1.6,R,ugm-3,3.1,R,ugm-3,5.5,R,ugm-3,70,R,ugm-3
12-01-2006,04:00,1.6,R,ugm-3,3.1,R,ugm-3,5.5,R,ugm-3,76,R,ugm-3
12-01-2006,05:00,2.0,R,ugm-3,3.1,R,ugm-3,6.1,R,ugm-3,74,R,ugm-3
12-01-2006,06:00,2.3,R,ugm-3,4.6,R,ugm-3,8.0,R,ugm-3,70,R,ugm-3
12-01-2006,07:00,2.0,R,ugm-3,9.6,R,ugm-3,12.6,R,ugm-3,62,R,ugm-3
12-01-2006,08:00,2.0,R,ugm-3,18.5,R,ugm-3,21.6,R,ugm-3,52,R,ugm-3
12-01-2006,09:00,2.6,R,ugm-3,11.8,R,ugm-3,15.9,R,ugm-3,60,R,ugm-3
12-01-2006,10:00,2.0,R,ugm-3,7.1,R,ugm-3,10.1,R,ugm-3,66,R,ugm-3
12-01-2006,11:00,2.6,R,ugm-3,8.4,R,ugm-3,12.4,R,ugm-3,70,R,ugm-3
12-01-2006,12:00,3.0,R,ugm-3,10.5,R,ugm-3,15.1,R,ugm-3,68,R,ugm-3
12-01-2006,13:00,3.0,R,ugm-3,12.0,R,ugm-3,16.6,R,ugm-3,64,R,ugm-3
12-01-2006,14:00,2.6,R,ugm-3,13.0,R,ugm-3,17.0,R,ugm-3,64,R,ugm-3
12-01-2006,15:00,2.6,R,ugm-3,8.4,R,ugm-3,12.4,R,ugm-3,66,R,ugm-3
12-01-2006,16:00,2.3,R,ugm-3,6.5,R,ugm-3,9.9,R,ugm-3,66,R,ugm-3
12-01-2006,17:00,2.0,R,ugm-3,8.0,R,ugm-3,11.1,R,ugm-3,60,R,ugm-3
12-01-2006,18:00,2.0,R,ugm-3,8.0,R,ugm-3,11.1,R,ugm-3,60,R,ugm-3
12-01-2006,19:00,2.6,R,ugm-3,7.1,R,ugm-3,11.1,R,ugm-3,56,R,ugm-3
12-01-2006,20:00,2.6,R,ugm-3,7.1,R,ugm-3,11.1,R,ugm-3,58,R,ugm-3
12-01-2006,21:00,2.3,R,ugm-3,9.6,R,ugm-3,13.0,R,ugm-3,56,R,ugm-3
12-01-2006,22:00,2.0,R,ugm-3,7.1,R,ugm-3,10.1,R,ugm-3,54,R,ugm-3
12-01-2006,23:00,2.0,R,ugm-3,8.6,R,ugm-3,11.7,R,ugm-3,52,R,ugm-3
12-01-2006,24:00,2.3,R,ugm-3,7.1,R,ugm-3,10.5,R,ugm-3,50,R,ugm-3
13-01-2006,01:00,0.4,R,ugm-3,2.7,R,ugm-3,3.2,R,ugm-3,52,R,ugm-3
13-01-2006,02:00,1.3,R,ugm-3,0.8,R,ugm-3,2.7,R,ugm-3,54,R,ugm-3
13-01-2006,03:00,0.6,R,ugm-3,1.0,R,ugm-3,1.9,R,ugm-3,54,R,ugm-3
13-01-2006,04:00,1.3,R,ugm-3,0.0,R,ugm-3,1.9,R,ugm-3,52,R,ugm-3
13-01-2006,05:00,0.6,R,ugm-3,0.0,R,ugm-3,1.0,R,ugm-3,52,R,ugm-3
13-01-2006,06:00,0.0,R,ugm-3,1.0,R,ugm-3,1.0,R,ugm-3,56,R,ugm-3
13-01-2006,07:00,0.6,R,ugm-3,0.6,R,ugm-3,1.5,R,ugm-3,58,R,ugm-3
13-01-2006,08:00,0.6,R,ugm-3,1.0,R,ugm-3,1.9,R,ugm-3,56,R,ugm-3
13-01-2006,09:00,0.0,R,ugm-3,3.1,R,ugm-3,3.1,R,ugm-3,54,R,ugm-3
13-01-2006,10:00,1.3,R,ugm-3,2.1,R,ugm-3,4.0,R,ugm-3,54,R,ugm-3
13-01-2006,11:00,1.3,R,ugm-3,2.1,R,ugm-3,4.0,R,ugm-3,54,R,ugm-3
13-01-2006,12:00,1.3,R,ugm-3,4.6,R,ugm-3,6.5,R,ugm-3,56,R,ugm-3
13-01-2006,13:00,1.3,R,ugm-3,5.5,R,ugm-3,7.4,R,ugm-3,60,R,ugm-3
13-01-2006,14:00,1.0,R,ugm-3,3.6,R,ugm-3,5.2,R,ugm-3,62,R,ugm-3
13-01-2006,15:00,1.3,R,ugm-3,2.1,R,ugm-3,4.0,R,ugm-3,66,R,ugm-3
13-01-2006,16:00,0.6,R,ugm-3,3.1,R,ugm-3,4.0,R,ugm-3,68,R,ugm-3
13-01-2006,17:00,1.3,R,ugm-3,2.7,R,ugm-3,4.6,R,ugm-3,68,R,ugm-3
13-01-2006,18:00,1.0,R,ugm-3,2.7,R,ugm-3,4.2,R,ugm-3,66,R,ugm-3
13-01-2006,19:00,0.4,R,ugm-3,3.6,R,ugm-3,4.2,R,ugm-3,62,R,ugm-3
13-01-2006,20:00,1.0,R,ugm-3,2.7,R,ugm-3,4.2,R,ugm-3,62,R,ugm-3
13-01-2006,21:00,0.6,R,ugm-3,2.5,R,ugm-3,3.4,R,ugm-3,66,R,ugm-3
13-01-2006,22:00,0.6,R,ugm-3,3.1,R,ugm-3,4.0,R,ugm-3,64,R,ugm-3
13-01-2006,23:00,0.6,R,ugm-3,2.1,R,ugm-3,3.1,R,ugm-3,66,R,ugm-3
13-01-2006,24:00,1.3,R,ugm-3,1.5,R,ugm-3,3.4,R,ugm-3,68,R,ugm-3
14-01-2006,01:00,2.6,R,ugm-3,6.7,R,ugm-3,10.7,R,ugm-3,66,R,ugm-3
14-01-2006,02:00,2.6,R,ugm-3,8.0,R,ugm-3,12.0,R,ugm-3,58,R,ugm-3
14-01-2006,03:00,1.6,R,ugm-3,8.6,R,ugm-3,11.1,R,ugm-3,54,R,ugm-3
14-01-2006,04:00,2.3,R,ugm-3,8.6,R,ugm-3,12.0,R,ugm-3,52,R,ugm-3
14-01-2006,05:00,2.0,R,ugm-3,2.5,R,ugm-3,5.5,R,ugm-3,84,R,ugm-3
14-01-2006,06:00,2.3,R,ugm-3,1.5,R,ugm-3,5.0,R,ugm-3,88,R,ugm-3
14-01-2006,07:00,2.3,R,ugm-3,1.9,R,ugm-3,5.3,R,ugm-3,84,R,ugm-3
14-01-2006,08:00,2.6,R,ugm-3,0.6,R,ugm-3,4.6,R,ugm-3,80,R,ugm-3
14-01-2006,09:00,2.6,R,ugm-3,0.6,R,ugm-3,4.6,R,ugm-3,80,R,ugm-3
14-01-2006,10:00,2.6,R,ugm-3,3.1,R,ugm-3,7.1,R,ugm-3,76,R,ugm-3
14-01-2006,11:00,2.3,R,ugm-3,3.4,R,ugm-3,6.9,R,ugm-3,74,R,ugm-3
14-01-2006,12:00,2.0,R,ugm-3,2.5,R,ugm-3,5.5,R,ugm-3,80,R,ugm-3
14-01-2006,13:00,2.0,R,ugm-3,2.1,R,ugm-3,5.2,R,ugm-3,82,R,ugm-3
14-01-2006,14:00,1.6,R,ugm-3,2.5,R,ugm-3,5.0,R,ugm-3,78,R,ugm-3
14-01-2006,15:00,1.6,R,ugm-3,2.1,R,ugm-3,4.6,R,ugm-3,76,R,ugm-3
14-01-2006,16:00,2.3,R,ugm-3,1.9,R,ugm-3,5.3,R,ugm-3,74,R,ugm-3
14-01-2006,17:00,2.6,R,ugm-3,1.9,R,ugm-3,5.9,R,ugm-3,72,R,ugm-3
14-01-2006,18:00,2.3,R,ugm-3,2.5,R,ugm-3,5.9,R,ugm-3,70,R,ugm-3
14-01-2006,19:00,2.0,R,ugm-3,3.1,R,ugm-3,6.1,R,ugm-3,74,R,ugm-3
14-01-2006,20:00,1.4,R,ugm-3,4.4,R,ugm-3,6.5,R,ugm-3,72,R,ugm-3
14-01-2006,21:00,1.6,R,ugm-3,3.6,R,ugm-3,6.1,R,ugm-3,74,R,ugm-3
14-01-2006,22:00,2.3,R,ugm-3,5.5,R,ugm-3,9.0,R,ugm-3,68,R,ugm-3
14-01-2006,23:00,1.6,R,ugm-3,9.2,R,ugm-3,11.7,R,ugm-3,64,R,ugm-3
14-01-2006,24:00,2.6,R,ugm-3,9.6,R,ugm-3,13.6,R,ugm-3,60,R,ugm-3
15-01-2006,01:00,1.8,R,ugm-3,5.3,R,ugm-3,8.0,R,ugm-3,60,R,ugm-3
15-01-2006,02:00,1.8,R,ugm-3,6.7,R,ugm-3,9.4,R,ugm-3,50,R,ugm-3
15-01-2006,03:00,2.3,R,ugm-3,5.0,R,ugm-3,8.4,R,ugm-3,58,R,ugm-3
15-01-2006,04:00,1.6,R,ugm-3,4.6,R,ugm-3,7.1,R,ugm-3,60,R,ugm-3
15-01-2006,05:00,1.3,R,ugm-3,3.1,R,ugm-3,5.0,R,ugm-3,62,R,ugm-3
15-01-2006,06:00,2.0,R,ugm-3,1.1,R,ugm-3,4.2,R,ugm-3,62,R,ugm-3
15-01-2006,07:00,2.3,R,ugm-3,0.6,R,ugm-3,4.0,R,ugm-3,64,R,ugm-3
15-01-2006,08:00,1.3,R,ugm-3,2.1,R,ugm-3,4.0,R,ugm-3,66,R,ugm-3
15-01-2006,09:00,1.6,R,ugm-3,1.5,R,ugm-3,4.0,R,ugm-3,62,R,ugm-3
15-01-2006,10:00,2.3,R,ugm-3,0.6,R,ugm-3,4.0,R,ugm-3,64,R,ugm-3
15-01-2006,11:00,2.0,R,ugm-3,1.1,R,ugm-3,4.2,R,ugm-3,60,R,ugm-3
15-01-2006,12:00,2.6,R,ugm-3,0.0,R,ugm-3,4.0,R,ugm-3,66,R,ugm-3
15-01-2006,13:00,1.6,R,ugm-3,1.5,R,ugm-3,4.0,R,ugm-3,72,R,ugm-3
15-01-2006,14:00,2.3,R,ugm-3,0.6,R,ugm-3,4.0,R,ugm-3,72,R,ugm-3
15-01-2006,15:00,2.3,R,ugm-3,0.6,R,ugm-3,4.0,R,ugm-3,72,R,ugm-3
15-01-2006,16:00,1.3,R,ugm-3,2.1,R,ugm-3,4.0,R,ugm-3,68,R,ugm-3
15-01-2006,17:00,2.0,R,ugm-3,1.5,R,ugm-3,4.6,R,ugm-3,70,R,ugm-3
15-01-2006,18:00,2.0,R,ugm-3,2.1,R,ugm-3,5.2,R,ugm-3,68,R,ugm-3
15-01-2006,19:00,2.3,R,ugm-3,1.5,R,ugm-3,5.0,R,ugm-3,70,R,ugm-3
15-01-2006,20:00,2.6,R,ugm-3,1.0,R,ugm-3,5.0,R,ugm-3,72,R,ugm-3
15-01-2006,21:00,2.6,R,ugm-3,1.0,R,ugm-3,5.0,R,ugm-3,70,R,ugm-3
15-01-2006,22:00,2.0,R,ugm-3,4.0,R,ugm-3,7.1,R,ugm-3,64,R,ugm-3
15-01-2006,23:00,2.6,R,ugm-3,4.0,R,ugm-3,8.0,R,ugm-3,60,R,ugm-3
15-01-2006,24:00,2.3,R,ugm-3,4.0,R,ugm-3,7.4,R,ugm-3,56,R,ugm-3
16-01-2006,01:00,1.8,R,ugm-3,8.0,R,ugm-3,10.7,R,ugm-3,56,R,ugm-3
16-01-2006,02:00,1.8,R,ugm-3,6.7,R,ugm-3,9.4,R,ugm-3,60,R,ugm-3
16-01-2006,03:00,1.6,R,ugm-3,5.5,R,ugm-3,8.0,R,ugm-3,60,R,ugm-3
16-01-2006,04:00,2.0,R,ugm-3,5.2,R,ugm-3,8.2,R,ugm-3,58,R,ugm-3
16-01-2006,05:00,2.0,R,ugm-3,5.2,R,ugm-3,8.2,R,ugm-3,60,R,ugm-3
16-01-2006,06:00,2.0,R,ugm-3,5.2,R,ugm-3,8.2,R,ugm-3,60,R,ugm-3
16-01-2006,07:00,2.3,R,ugm-3,5.9,R,ugm-3,9.4,R,ugm-3,60,R,ugm-3
16-01-2006,08:00,2.0,R,ugm-3,5.2,R,ugm-3,8.2,R,ugm-3,60,R,ugm-3